HORYU-4 (41340 NORAD) Tracking and Keplerian Element Data

This shows tracking and keplerian element data for the satellite.

Feedback or suggestion? Click here.




ElementValue
Catalog41340
NameHORYU-4
Epoch Orbit37126
Epoch Day324.6898041
Epoch Year2022
RAAN80.6198
Inclination31.0044
Eccentricity0.0012654
Argument of Perigee317.7498
Mean Anonmoly42.2163
Mean Motion15.0446704
Decay Rate3.902E-05
L11 41340U 16012D 22324.68980410 .00003902 00000+0 26576-3 0 9993
L22 41340 31.0044 80.6198 0012654 317.7498 42.2163 15.04467040371263



Live tracking and technical data element details for HORYU-4 (NORAD 41340). HORYU-4 can be tracked NOW for your location showing map with azimuth and elevation plus other details from your city location.







IsCatalogInMostPopularTable: catalog: 41340, numindb: 536
Update: records affected: 1



GetName: 41340 HORYU-4

Hit Count: updated at: Fri, 02 Dec 2022 13:42:06 GMT